398188 Agni (2010 LE15) |
Classification: Aten [NEO, PHA] SPK-ID: 2398188 |
[ hide orbit diagram ]
For accurate long-term ephemerides, please instead use our Horizons system.This orbit viewer was implemented using two-body methods, and hence should not be used for determining accurate long-term trajectories (over several years or decades) or planetary encounter circumstances.
Orbital Elements at Epoch 2459200.5 (2020-Dec-17.0) TDB
Reference: JPL 99 (heliocentric ecliptic J2000)
Element | Value | Uncertainty (1-sigma) | Units |
e | .2734252409249107 | 3.7325e-08 | |
a | .8643572898025937 | 9.5633e-10 | au |
q | .6280201895931167 | 3.1946e-08 | au |
i | 13.2492767638482 | 3.4402e-06 | deg |
node | 134.2164860534504 | 3.9901e-06 | deg |
peri | 328.6297193028763 | 1.2425e-05 | deg |
M | 205.5052130115574 | 1.6268e-05 | deg |
tp | 2459326.464945949283 (2021-Apr-21.96494595) | 1.3153e-05 | TDB |
period | 293.5204573933894 0.80 | 4.8713e-07 1.334e-09 | d yr |
n | 1.226490320971092 | 2.0355e-09 | deg/d |
Q | 1.100694390012071 | 1.2178e-09 | au |
|
| | Orbit Determination Parameters
Additional Information
|
[ hide covariance matrix ]
Orbital Elements at Epoch 2457293.5 (2015-Sep-28.0) TDB
Reference: JPL 99 (heliocentric ecliptic J2000)
Element | Value | Uncertainty (1-sigma) | Units |
e | .2737166276639068 | 3.7157e-08 | |
q | .6277088884199932 | 3.2012e-08 | au |
tp | 2457272.278869371587 (2015-Sep-06.77886937) | 1.4887e-05 | TDB |
node | 134.2771787712008 | 3.9908e-06 | deg |
peri | 328.7263953599764 | 1.2479e-05 | deg |
i | 13.24584679281283 | 3.4436e-06 | deg |
|
| | Orbit Determination Parameters
Additional Information
|
Orbit Covariance (6×6)
|
|
e |
q |
tp |
node |
peri |
i |
e |
1.380662794581082E-15 |
-1.18925154020895E-15 |
-4.551344751089802E-13 |
-2.076955211216128E-14 |
-2.644283670834657E-13 |
-1.122435782470383E-13 |
q |
-1.18925154020895E-15 |
1.024779850233673E-15 |
3.905717417857529E-13 |
1.846056426997867E-14 |
2.258457845243579E-13 |
9.596348080450704E-14 |
tp |
-4.551344751089802E-13 |
3.905717417857529E-13 |
2.216277273648084E-10 |
-2.643213013109471E-11 |
1.738226402458545E-10 |
4.618972427120264E-11 |
node |
-2.076955211216128E-14 |
1.846056426997867E-14 |
-2.643213013109471E-11 |
1.592654453014908E-11 |
-3.637636080375321E-11 |
-2.173303894292304E-12 |
peri |
-2.644283670834657E-13 |
2.258457845243579E-13 |
1.738226402458545E-10 |
-3.637636080375321E-11 |
1.557158960517799E-10 |
3.255287771188413E-11 |
i |
-1.122435782470383E-13 |
9.596348080450704E-14 |
4.618972427120264E-11 |
-2.173303894292304E-12 |
3.255287771188413E-11 |
1.185814187001813E-11 |
|
Physical Parameter Table
Parameter |
Symbol |
Value |
Units |
Sigma |
Reference |
Notes |
absolute magnitude |
H |
19.4 |
|
n/a |
E2018P06 |
|
diameter |
diameter |
0.462 |
km |
0.006 |
urn:nasa:pds:neowise_diameters_albedos::2.0[neos] (http://adsabs.harvard.edu/abs/2011ApJ...743..156M) |
|
rotation period |
rot_per |
21.99 |
h |
n/a |
LCDB (Rev. 2020-October); Warner et al., 2009 |
Result based on less than full coverage, so that the period may be wrong by 30 percent or so. Published Reference List: [Warner, B.D. (2015) Minor Planet Bull. 42, 41-53.] |
geometric albedo |
albedo |
0.137 |
|
0.024 |
urn:nasa:pds:neowise_diameters_albedos::2.0[neos] (http://adsabs.harvard.edu/abs/2011ApJ...743..156M) |
|
|
398188 Agni | Discovered 2010 June 3 by WISE. |
Agni is the Vedic god of fire. He represents the vital spark of life, and the fire and brilliance of the Sun, lightning, and comets. Often said to be the link between heaven and Earth, he rides a chariot that is sometimes drawn by parrots. |
NOTE: some special characters may not display properly (any characters within {} are an attempt to place the proper accent above a character) |
Reference: MPC batch dated 2017-03-12 | Last Updated: 2017-03-14 |
|
[ show close-approach data ]
|